LFPM 241100Z AUTO 34009KT 320V020 5000 BR BKN018 OVC024 11/07 Q1028

Sorties Club
belle sortie vers AMBOISE et chateau de CHAMBORD le 20/05/2017

Remerciements a Kevin et Valentin pour l'organisation de cette sortie et aux instructeurs pour l'encadrement



Chateau CHAMBORD photo Repas Amboise photo Amboise au sol photo
Chenonceau photo Patrouille photo Vu du ciel photo